Regional Weather Roundup
Issued by NWS

Home | Current Version | Previous Version | Graphics & Text | Print | Product List | Glossary On
Versions: 1 2 3 4 5 6 7 8 9 10 11 12 13 14 15 16 17 18 19 20 21 22 23 24 25 26 27 28 29 30 31 32 33 34 35 36 37 38 39 40 41 42 43 44 45 46 47 48 49 50
000
ASUS43 KLOT 022108
RWRIL

ILLINOIS REGIONAL WEATHER ROUNDUP
NATIONAL WEATHER SERVICE CHICAGO/ROMEOVILLE IL
400 PM CDT THU JUL 02 2015

NOTE: "FAIR" INDICATES FEW OR NO CLOUDS BELOW 12,000 FEET WITH NO
SIGNIFICANT WEATHER AND/OR OBSTRUCTIONS TO VISIBILITY.

* THESE STATIONS ARE NOT UNDER NWS QUALITY CONTROL. THEY ALSO MAY NOT
  REPORT WEATHER SUCH AS PRECIPITATION OR FOG.

ILZ001-002-007-009-015-016-024-022200-
NORTHWEST ILLINOIS

CITY           SKY/WX    TMP DP  RH WIND       PRES   REMARKS
MOLINE         PTSUNNY   71  56  58 E12       29.96F
STERLING*      MOSUNNY   72  57  60 NE13      29.97F
SAVANNA*       MOSUNNY   73  51  45 E12       29.97F
$$

ILZ003-004-008-010-011-017-018-022200-
NORTH CENTRAL ILLINOIS

CITY           SKY/WX    TMP DP  RH WIND       PRES   REMARKS
ROCKFORD       CLOUDY    73  51  46 E9        30.00F
FREEPORT*      MOSUNNY   70  53  54 NE6       30.01F
ROCHELLE*      PTSUNNY   71  57  61 NE9       29.99S
DE KALB*       PTSUNNY   68  55  63 E8        30.00R
PERU*          MOSUNNY   72  56  58 E9        29.97F
$$

ILZ005-006-012>014-019>023-022200-
NORTHEAST ILLINOIS

CITY           SKY/WX    TMP DP  RH WIND       PRES   REMARKS
CHICAGO-OHARE  PTSUNNY   66  53  63 NE13      29.99S
CHICAGO-MIDWAY PTSUNNY   69  55  60 NE12      29.98S
AURORA         PTSUNNY   71  53  52 E9        29.98S
LANSING*       MOSUNNY   66  55  65 NE12G18   29.98S
JOLIET*        PTSUNNY   73  59  62 NE10      29.97S
WAUKEGAN       SUNNY     62  52  69 NE13      30.00F
DUPAGE AIRPORT PTSUNNY   69  53  56 NE12      29.98S
KANKAKEE*      MOSUNNY   73  60  64 NE9       29.95S
WHEELING       MOSUNNY   64  51  62 NE9       30.01F
MORRIS*        MOSUNNY   73  55  53 E9        29.95S
ROMEOVILLE*    PTSUNNY   70  54  57 NE9G16    29.98S
NORTHERLY ISL    N/A     62  55  77 N17         N/A
$$

LMZ740>746-022200-
SOUTHERN LAKE MICHIGAN

STATION/POSITION SKY/WX   TEMP    WIND        PRES    VSBY  WAVE
                          AIR SEA DIR/SP/G                  HT/PER
                          (F)     (DEG/KT/KT) (MB)    (MI)  (FT/S)
HARRISON CRIB              56     360/ 15/ 18   N/A
BURNHAM HARBOR             61     330/ 13/ 15   N/A
CALUMET HARBOR             62     340/ 10/ 15   N/A
BURNS HARBOR               61      10/ 13/ 17 1015.6F
MICHIGAN CITY              62     350/ 16/ 18   N/A
MICHIGAN CITY 6N           64 64   20/ 14/ 17   N/A           4/ 4
ST. JOSEPH                 63 63                N/A           2/ 4
$$

ILZ025>027-034>036-040-047-049-050-058-095>099-022200-
WEST-CENTRAL ILLINOIS

CITY           SKY/WX    TMP DP  RH WIND       PRES   REMARKS
QUINCY         CLOUDY    70  59  68 NE7       29.94F
GALESBURG*     PTSUNNY   71  58  63 NE9       29.97R
MACOMB*        CLOUDY    69  60  71 E5        29.98S
JACKSONVILLE*  CLOUDY    72  61  68 NE9       29.94R
PITTSFIELD*    CLOUDY    71  61  70 NE9       29.94S
$$

ILZ028>032-037-038-041>044-048-051>054-059>061-022200-
CENTRAL ILLINOIS

CITY           SKY/WX    TMP DP  RH WIND       PRES   REMARKS
PONTIAC        PTSUNNY   75  62  63 NE10      29.95F
BLOOMINGTON    MOSUNNY   76  60  57 NE13      29.94F
DECATUR        CLOUDY    75  60  59 NE8       29.92S
PEORIA         PTSUNNY   76  57  51 E10       29.94F
LACON*         MOSUNNY   72  57  59 E6        29.95S
LINCOLN*       PTSUNNY   75  58  55 NE7       29.93S
SPRINGFIELD    CLOUDY    74  61  63 NE8       29.93S
TAYLORVILLE    CLOUDY    72  61  68 N10       29.92F
$$

ILZ033-039-045-046-055>057-062-063-022200-
EAST-CENTRAL ILLINOIS

CITY           SKY/WX    TMP DP  RH WIND       PRES   REMARKS
CHAMPAIGN      PTSUNNY   77  63  61 NE6       29.92F
DANVILLE*      MOSUNNY   76  64  66 NE7       29.89S
RANTOUL*       MOSUNNY   78  60  54 NE9       29.92F
MATTOON        CLOUDY    75  65  70 N12       29.89S
PARIS*         PTSUNNY   77  66  68 N5        29.90F
$$

ILZ079-100>102-022200-
SOUTHWEST ILLINOIS

CITY           SKY/WX    TMP DP  RH WIND       PRES   REMARKS
ALTON          PTSUNNY   77  70  78 NE12      29.89F
BELLEVILLE     PTSUNNY   77  69  76 E5        29.86F
CAHOKIA*       CLOUDY    77  66  68 NE7       29.87F
SPARTA*        CLOUDY    73  67  83 N6        29.89F
$$

ILZ064>066-069>071-074>076-080>082-084>086-088>090-092>094-022200-
SOUTH-CENTRAL ILLINOIS

CITY           SKY/WX    TMP DP  RH WIND       PRES   REMARKS
CARBONDALE     CLOUDY    77  69  76 N9        29.86S
CAIRO*         PTSUNNY   82  73  76 N8        29.84S HX  87
EFFINGHAM*     PTSUNNY   77  64  62 N6        29.90S
MARION         PTSUNNY   77  72  83 N12       29.86F
MT. VERNON     CLOUDY    73  66  78 N5        29.87F
CENTRALIA*     PTSUNNY   75  66  74 N6        29.87F
SALEM*         CLOUDY    78  68  70 NE8       29.87F HX  80
METROPOLIS*    MOSUNNY   82  73  74 W8        29.84S HX  88
$$

ILZ067-068-072-073-078-083-087-091-022200-
SOUTHEAST ILLINOIS

CITY           SKY/WX    TMP DP  RH WIND       PRES   REMARKS
LAWRENCEVILLE  PTSUNNY   76  69  79 N6        29.86F
FLORA*         PTSUNNY   75  68  77 N5        29.88S
FAIRFIELD*     CLOUDY    72  69  90 N6        29.86S
HARRISBURG*    MOSUNNY   80  73  79 N7        29.86S HX  83
ROBINSON*      CLOUDY    76  67  74 N6        29.87F
CARMI*         PTSUNNY   78  68  72 N7        29.84S HX  80
$$

ABBREVIATIONS USED IN REMARKS
   TC - TEMPERATURE IN CELSIUS
  WCI - WIND CHILL INDEX
   HX - HEAT INDEX
  VSB - VISIBILITY
$$



USA.gov is the U.S. government's official web portal to all federal, state and local government web resources and services.